Regional Weather Roundup
Issued by NWS

Home | Current Version | Previous Version | Graphics & Text | Print | Product List | Glossary On
Versions: 1 2 3 4 5 6 7 8 9 10 11 12 13 14 15 16 17 18 19 20 21 22 23 24 25 26 27 28 29 30 31 32 33 34 35 36 37 38 39 40 41 42 43 44 45 46 47 48 49 50
000
ASUS45 KBOU 280007
RWRCO

WEATHER ROUNDUP FOR COLORADO
NATIONAL WEATHER SERVICE DENVER/BOULDER CO
500 PM MST THU NOV 27 2014

NOTE: "FAIR" INDICATES FEW OR NO CLOUDS BELOW 12000 FEET WITH NO
SIGNIFICANT WEATHER AND/OR OBSTRUCTIONS TO VISIBILITY.

COZ001>005-013-030-031-280100-
...NORTHWEST COLORADO...

CITY           SKY/WX    TMP DP  RH WIND       PRES   REMARKS
CRAIG          CLOUDY    38  27  64 E5        30.28S
HAYDEN         MOCLDY    37  25  60 SE7       30.29F
MEEKER         CLOUDY    48  22  35 SW6       30.28S
MOUNT WERNER   NOT AVBL
STEAMBOAT SPGS MOCLDY    34  28  79 CALM      30.31S
WALDEN         PTCLDY    37  19  48 S7        30.30S
$$

COZ006>008-011-280100-
...WEST CENTRAL VALLEYS...

CITY           SKY/WX    TMP DP  RH WIND       PRES   REMARKS
GRAND JUNCTION CLOUDY    46  27  47 CALM      30.32S
MONTROSE       MOCLDY    50  24  36 N3        30.34S
EAGLE          PTCLDY    45  25  45 SE7       30.34R
RIFLE          CLOUDY    43  29  57 CALM      30.33R
DELTA          MOCLDY    52  27  38 CALM      30.32S
NUCLA          NOT AVBL
$$

COZ017>023-064>068-280100-
...SOUTHWEST COLORADO...

CITY           SKY/WX    TMP DP  RH WIND       PRES   REMARKS
DURANGO        PTCLDY    46  22  38 SW7       30.37S
CORTEZ         CLEAR     40  23  50 CALM      30.36F
PAGOSA SPRINGS PTCLDY    47  18  32 SW3       30.41R
TELLURIDE      PTCLDY    44  17  33 E6        30.47S
WOLF CREEK PAS CLEAR     30  16  55 MISG      30.55S
$$

COZ009-010-012-014-032>034-037-058>063-280100-
...CENTRAL COLORADO...

CITY           SKY/WX    TMP DP  RH WIND       PRES   REMARKS
ASPEN          MOCLDY    36  25  64 S8        30.36S
BUENA VISTA    PTCLDY    46  16  30 W8        30.33S
COPPER MTN     MOCLDY    34  16  47 W31G41    30.45S HAZE    WCI  20
BERTHOUD PASS  NOT AVBL
COTTONWOOD PAS PTCLDY    45   9  23 W18G31    30.38F
GUNNISON       PTCLDY    34  19  55 N3        30.44S
KREMMLING      MOCLDY    43  21  42 N3        30.32R
LEADVILLE      MOCLDY    36  16  44 N10       30.40F
MONARCH PASS   CLEAR     28  16  59 W31G38    30.59R WCI  12
SALIDA         PTCLDY    54  14  20 W20       30.40R
SUNLIGHT       CLOUDY    30  25  80 CALM      30.46R
WILKERSON PASS PTCLDY    34  12  40 W21G33    30.41S WCI  22
$$

COZ069>075-280100-
...SAN LUIS VALLEY/SANGRE DE CRISTO MOUNTAINS...

CITY           SKY/WX    TMP DP  RH WIND       PRES   REMARKS
ALAMOSA        CLEAR     43  17  35 CALM      30.36S
LA VETA PASS   PTCLDY    36  16  44 SW6       30.42S
SAGUACHE       PTCLDY    37  19  48 SE8       30.38S
$$

COZ035-036-038>040-280100-
...NORTHERN COLORADO FRONT RANGE...

CITY           SKY/WX    TMP DP  RH WIND       PRES   REMARKS
DENVER INTL AP CLOUDY    60  19  20 W21G26    30.13R
DMNS CITY PARK   N/A     59  17  20 E12       30.12S
AURORA         MOCLDY    53  18  25 E1        30.15R
FRONT RANGE AP NOT AVBL
ERIE MUNI ARPT CLOUDY    57  18  21 SW9       30.11S
BOULDER MUN AP CLOUDY    59  21  23 E7        30.09F
CENTENNIAL     CLOUDY    57  15  19 E3        30.16R
BROOMFIELD     MOCLDY    59  19  21 NW3G18    30.13R
FORT COLLINS   MOCLDY    52  21  30 N13       30.10S
LONGMONT       MOCLDY    61  20  20 S5        30.11S
$$

COZ041-046-047-076>085-087-088-280100-
...PIKES PEAK/PALMER DIVIDE AND SOUTHERN FOOTHILLS...

CITY           SKY/WX    TMP DP  RH WIND       PRES   REMARKS
COLO. SPRINGS  CLOUDY    60  14  16 NW20G28   30.19S
A. F. ACADEMY  CLOUDY    58  13  17 W17G29    30.19F
ELLICOTT       NOT AVBL
FALCON         NOT AVBL
FORT CARSON    CLOUDY    59  15  17 W5        30.17S
LIMON          MOCLDY    44  22  41 CALM      30.15R
MONUMENT HILL  CLOUDY    50  16  25 W7        30.21S
TRINIDAD       MOCLDY    56  23  27 W6        30.21S
$$

COZ042>045-048>051-090-091-280100-
...NORTHEAST COLORADO...

CITY           SKY/WX    TMP DP  RH WIND       PRES   REMARKS
GREELEY ARPT   MOCLDY    55  21  26 W17G23    30.08F
AKRON          CLOUDY    45  29  53 W12       30.09R
BURLINGTON     CLOUDY    52  25  35 SW7       30.09S
WRAY           MOCLDY    49  31  49 W6        30.05S
STERLING       CLOUDY    39  36  87 SW8       30.04F
HOLYOKE        MOCLDY    43  32  65 W8        30.03F
FORT MORGAN    CLOUDY    47  26  45 W9        30.09S
$$

COZ086-089-092>099-280100-
...SOUTHEAST COLORADO...

CITY           SKY/WX    TMP DP  RH WIND       PRES   REMARKS
PUEBLO         CLOUDY    57  17  21 W10       30.13R
LA JUNTA       CLOUDY    61  22  22 S3        30.10F
LAMAR          CLOUDY    50  28  42 E7        30.09S
SPRINGFIELD      N/A     54  21  27 SW7       30.14R
$$



USA.gov is the U.S. government's official web portal to all federal, state and local government web resources and services.